Weather History for KLGU - February, 2014

Change the Weather History Date:

Tuesday, February 11, 2014

  Actual Average Record
Temperature  
Mean Temperature 31 °F -  
Max Temperature 41 °F 34 °F 61 °F (1961)
Min Temperature 21 °F 14 °F -14 °F (1982)
Degree Days  
Heating Degree Days 34    
Moisture  
Dew Point 26 °F    
Average Humidity 78    
Maximum Humidity 92    
Minimum Humidity 62    
Precipitation  
Precipitation 0.00 in - - ()
Sea Level Pressure  
Sea Level Pressure 30.21 in    
Wind  
Wind Speed 4 mph (NNE)    
Max Wind Speed 9 mph    
Max Gust Speed -    
Visibility 10 miles    
Events      
Averages and records for this station are not official NWS values.
T = Trace of Precipitation, MM = Missing Value Source: NWS Daily Summary

Daily Weather History Graph

Daily Weather History Graph

Search for Another Location

Airport or City:

Trip Planner

Search our weather history database for the weather conditions in past years. The results will help you decide how hot, cold, wet, or windy it might be!

Date:

Astronomy

Feb. 11, 2014 Rise Set
Actual Time 7:28 AM MST 5:55 PM MST
Civil Twilight 6:59 AM MST 6:24 PM MST
Nautical Twilight 6:26 AM MST 6:57 PM MST
Astronomical Twilight 5:54 AM MST 7:29 PM MST
Moon 3:18 PM MST (2/11) 5:08 AM MST (2/11)
Length of Visible Light 11h 25m
Length of Day
10h 27m
Waxing Gibbous, 91% of the Moon is Illuminated
Feb 11
Waxing Gibbous
Feb 14
Full
Feb 22
Last Quarter
Mar 1
New
Mar 8
First Quarter

Hourly Weather History & Observations

Time (MST) Temp. Windchill Dew Point Humidity Pressure Visibility Wind Dir Wind Speed Gust Speed Precip Events Conditions
12:51 AM 21.9 °F 13.4 °F 19.0 °F 89% 30.26 in 10.0 mi North 6.9 mph - N/A   Clear
1:51 AM 25.0 °F - 21.0 °F 85% 30.25 in 10.0 mi Calm Calm - N/A   Clear
2:51 AM 21.9 °F - 19.0 °F 89% 30.24 in 10.0 mi Calm Calm - N/A   Partly Cloudy
3:51 AM 23.0 °F 18.4 °F 21.0 °F 92% 30.23 in 10.0 mi NE 3.5 mph - N/A   Mostly Cloudy
4:51 AM 27.0 °F - 21.9 °F 81% 30.21 in 10.0 mi Calm Calm - N/A   Overcast
5:51 AM 28.0 °F - 24.1 °F 85% 30.20 in 10.0 mi Calm Calm - N/A   Overcast
6:51 AM 26.1 °F 19.4 °F 23.0 °F 88% 30.20 in 10.0 mi East 5.8 mph - N/A   Overcast
7:51 AM 26.1 °F 21.9 °F 21.0 °F 81% 30.21 in 10.0 mi ESE 3.5 mph - N/A   Partly Cloudy
8:51 AM 28.0 °F 22.8 °F 24.1 °F 85% 30.22 in 10.0 mi North 4.6 mph - N/A   Overcast
9:51 AM 30.9 °F - 26.1 °F 82% 30.22 in 10.0 mi Calm Calm - N/A   Overcast
10:51 AM 36.0 °F 30.3 °F 28.0 °F 73% 30.22 in 10.0 mi North 6.9 mph - N/A   Overcast
11:51 AM 35.1 °F 27.9 °F 28.0 °F 76% 30.21 in 10.0 mi NNW 9.2 mph - N/A   Overcast
12:51 PM 37.0 °F 31.0 °F 28.0 °F 70% 30.17 in 10.0 mi North 8.1 mph - N/A   Overcast
1:51 PM 37.9 °F 34.4 °F 28.9 °F 70% 30.18 in 10.0 mi NNE 4.6 mph - N/A   Overcast
2:51 PM 37.9 °F 32.7 °F 28.9 °F 70% 30.20 in 10.0 mi North 6.9 mph - N/A   Overcast
3:51 PM 41.0 °F 39.0 °F 28.9 °F 62% 30.18 in 10.0 mi NE 3.5 mph - N/A   Mostly Cloudy
4:51 PM 39.9 °F 35.8 °F 28.9 °F 65% 30.17 in 10.0 mi NE 5.8 mph - N/A   Scattered Clouds
5:51 PM 39.0 °F - 28.0 °F 65% 30.17 in 10.0 mi Calm Calm - N/A   Clear
6:51 PM 37.0 °F - 28.9 °F 73% 30.22 in 10.0 mi Calm Calm - N/A   Overcast
7:51 PM 37.0 °F 34.5 °F 28.9 °F 73% 30.23 in 10.0 mi NW 3.5 mph - N/A   Overcast
8:51 PM 34.0 °F - 28.9 °F 82% 30.25 in 10.0 mi Calm Calm - N/A   Overcast
9:51 PM 32.0 °F 24.8 °F 28.9 °F 88% 30.25 in 10.0 mi WNW 8.1 mph - N/A   Overcast
10:51 PM 35.1 °F - 28.9 °F 78% 30.23 in 10.0 mi Calm Calm - N/A   Scattered Clouds
11:51 PM 33.1 °F 28.7 °F 28.0 °F 82% 30.23 in 10.0 mi SSE 4.6 mph - N/A   Clear